{"data":{"norad_id":43618,"intl_designator":"2018-071A","name":"SSTL S1-4","alt_names":[],"object_type":"PAYLOAD","status":"ACTIVE","operator":null,"country":"UK","launch_date":"2018-09-16","launch_site_code":"SRILR","launch_vehicle":null,"mission":null,"orbit_class":"UNKNOWN","rcs_meters":null,"size_class":null,"mass_kg":null,"dimensions":null,"purposes":[],"wikipedia_slug":null,"has_3d_model":false,"image_url":null,"decayed_at":null,"tle_current":{"epoch":"2026-09-20T04:14:14.606016Z","epoch_age_seconds":82864,"freshness":"FRESH","line1":"1 43618U 18071A   26263.17655794  .00000730  00000+0  67164-4 0  9999","line2":"2 43618  97.4858 130.7888 0004423 229.2521 130.8318 14.97618374437149","mean_motion":14.97618374,"eccentricity":0.0004423,"inclination_deg":97.4858,"raan_deg":130.7888,"arg_perigee_deg":229.2521,"mean_anomaly_deg":130.8318,"bstar":6.7164e-5,"rev_number":43714,"period_min":96.152666460274,"perigee_km":571.18236295851,"apogee_km":577.33245105095,"semimajor_km":6952.3944070047,"source":"CELESTRAK","updated_at":"2026-09-20T09:00:14.361315Z"}}}